SCP
0 0 0 0 0 0 0 0 0 0 0 0 0 0 0 0 0 0 0 -0 0 0 0 0 0 0 -0 -0 0 0 0 0 0 0 0 0 0 0 0 0 0 0 0 0
0 0 0 0 0 0 0 0 0 0 0 0 0 0 0 0 0 0 0 0 -0 -0 -0 0 -0 -0 -0 -0 -0 0 0 0 0 0 0 0 0 0 0 0 0 0 0 0
0 0 0 0 0 0 0 0 0 0 0 0 0 0 0 0 0 0 0 0 0 -0 -0 -0 -0 0 -0 -0 -0 0 0 0 0 0 0 0 0 0 0 0 0 0 0 0
0 0 0 0 0 0 0 0 0 0 0 0 0 0 0 0 0 0 0 0 -0 0 0 -0 0 -0 0 -0 -0 -0 0 0 0 0 0 0 0 0 0 0 0 0 0 0
0 0 0 0 0 0 0 0 0 0 0 0 0 0 0 0 -0 0 0 0 0 0 -0 -0 -0 -0 0 -0 0 0 0 0 0 0 0 0 0 0 0 0 0 0 0 0
0 0 0 0 0 0 0 0 0 0 0 0 0 0 0 0 0 0 0 -0 0 0 -0 -0 -0 -0 0 0 0 0 0 0 0 0 0 0 0 0 0 0 0 0 0 0
0 0 0 0 0 0 0 0 0 0 0 0 0 0 -0 -0 -0 -0 -0 -0 0 0 -0 -0 -0 -0 -0 0 0 -0 0 0 0 0 0 0 0 0 0 0 0 0 0 0
0 0 0 0 0 0 0 0 0 0 0 0 0 0 0 -0 0 0 0 0 0 0 -0 -0 -0 0 0 -0 -0 -0 0 0 0 0 0 0 0 0 0 0 0 0 0 0
0 0 0 0 0 0 0 0 0 0 0 0 0 0 0 0 0 0 0 0 -0 0 0 -0 -0 0 0 0 -0 -0 -0 0 0 0 0 0 0 0 0 0 0 0 0 0
0 0 0 0 0 0 0 0 0 0 0 0 0 0 0 0 0 0 -0 0 0 0 0 0 0 0 0 0 0 -0 0 0 0 0 0 0 0 0 0 0 0 0 0 0
0 0 0 0 0 0 0 0 0 0 0 0 0 0 0 0 0 0 0 -0 0 0 0 0 0 0 0 0 0 0 0 0 0 0 0 0 0 0 0 0 0 0 0 0
0 0 0 0 0 0 0 0 0 0 0 0 0 0 0 0 -0 0 0 -0 0 -0 0 0 0 0 0 0 0 0 0 0 0 0 0 0 0 0 0 0 0 0 0 0
0 0 0 0 0 0 0 0 0 0 0 0 0 0 0 0 0 0 0 0 0 0 0 0 -0 0 0 0 0 0 0 0 0 0 0 0 0 0 0 0 0 0 0 0
0 0 0 0 0 0 0 0 0 0 0 0 0 0 0 0 0 0 0 0 0 0 0 0 0 0 0 0 0 0 0 0 0 0 0 0 0 0 0 0 0 0 0 0
0 0 0 0 0 0 0 0 0 0 0 0 0 0 0 0 0 0 0 0 0 0 0 0 0 -0 -0 -0 0 0 0 0 0 0 0 0 0 0 0 0 0 0 0 0
0 0 0 0 0 0 0 0 0 0 0 0 0 0 0 0 0 0 0 0 0 0 0 0 -0 0 -0 0 -0 -0 -0 0 0 0 0 0 0 0 0 0 0 0 0 0
0 0 0 0 0 0 0 0 0 0 0 0 0 0 0 0 0 0 0 0 0 0 0 0 0 0 -0 -0 -0 -0 0 0 0 0 0 0 0 0 0 0 0 0 0 0
0 0 0 0 0 0 0 0 0 0 0 0 0 0 0 0 0 0 0 0 0 0 0 0 0 0 0 0 -0 -0 -0 0 0 0 0 0 0 0 0 0 0 0 0 0
0 0 0 0 0 0 0 0 0 0 0 0 0 0 0 0 0 0 0 0 0 0 0 0 0 0 0 0 -0 -0 0 0 0 0 0 0 0 0 0 0 0 0 0 0
0 0 0 0 0 0 0 0 0 0 0 0 0 0 0 0 0 0 0 0 0 0 0 0 0 0 0 0 -0 -0 -0 0 0 0 0 0 0 0 0 0 0 0 0 0
0 0 0 0 0 0 0 0 0 0 0 0 0 0 0 0 0 0 0 0 0 0 0 0 0 0 0 0 0 -0 -0 -0 0 0 0 0 0 0 0 0 0 0 0 0
0 0 0 0 0 0 0 0 0 0 0 0 0 0 0 0 0 0 0 0 0 0 0 0 0 0 0 0 0 -0 -0 -0 0 -0 0 0 0 0 0 0 0 0 0 0
0 0 0 0 0 0 0 0 0 0 0 0 0 0 0 0 0 0 0 0 0 0 0 0 0 -0 -0 -0 -0 -0 0 0 0 0 0 0 0 0 0 0 0 0 0 0
0 0 0 0 0 0 0 0 0 0 0 0 0 0 0 0 0 0 0 0 0 0 0 0 0 -0 -0 -0 -0 -0 0 0 0 0 -0 0 0 0 0 0 0 0 0 0
0 0 0 0 0 0 0 0 0 0 0 0 0 0 0 0 0 0 0 0 0 0 0 0 0 -0 -0 -0 -0 0 0 -0 -0 -0 0 0 0 0 0 0 0 0 0 0
0 0 0 0 0 0 0 0 0 0 0 0 0 0 0 0 0 0 0 0 0 0 0 0 0 0 0 -0 -0 -0 0 0 -0 -0 0 0 0 0 0 0 0 0 0 0
0 0 0 0 0 0 0 0 0 0 0 0 0 0 0 0 0 0 0 0 0 0 0 0 0 0 0 0 0 -0 0 0 0 0 0 0 0 0 0 0 0 0 0 0
Wind_Speed_500mb
56 54 55 56 59 53 40 16 5 14 11 5 0 10 19 24 22 23 18 17 18 21 25 23 16 12 7 16 12 13 13 13 22 54 45 49 56 43 54 25 42 24 19 9
55 52 55 52 49 48 35 19 9 10 13 6 7 14 20 15 25 23 13 20 14 20 22 12 9 10 21 14 1 4 7 19 17 23 46 43 55 47 52 33 31 42 24 5
51 52 55 48 42 36 24 14 7 7 6 2 7 16 12 16 16 17 21 20 22 23 20 17 13 14 4 9 18 14 10 9 29 17 37 22 47 49 49 47 24 25 30 25
48 56 57 48 39 26 16 12 5 8 8 10 20 18 11 23 18 14 26 8 15 22 14 30 22 10 16 4 11 15 7 14 38 38 17 14 26 49 50 49 44 33 24 31
53 59 61 45 32 28 9 11 10 12 32 17 22 3 15 21 23 15 18 21 31 28 25 28 33 32 23 8 12 10 8 3 23 40 30 22 15 21 45 48 44 39 30 34
57 62 62 49 25 22 7 9 10 11 17 12 14 12 15 24 33 25 18 28 30 30 21 29 43 44 40 23 13 7 9 8 10 38 39 19 23 29 31 38 44 39 38 40
53 63 64 50 23 19 18 20 16 7 10 16 18 24 33 29 31 33 47 41 19 16 48 54 47 48 46 39 31 23 17 14 8 16 32 25 14 16 26 26 35 38 39 31
48 61 66 55 20 17 16 20 16 8 11 20 27 25 26 35 29 28 31 29 24 34 26 11 14 11 18 29 36 30 26 19 6 10 24 19 15 19 8 24 18 10 13 17
44 55 63 60 24 14 17 19 20 17 12 7 16 33 30 21 20 21 14 25 29 14 6 8 10 7 7 4 8 29 26 20 11 8 20 37 19 17 11 11 17 15 12 9
46 50 59 56 35 14 17 24 22 17 18 31 20 8 12 14 11 10 31 22 13 10 7 8 9 6 12 3 6 25 17 12 16 11 12 11 23 20 6 22 8 19 18 18
43 51 57 52 43 16 17 18 23 22 15 45 33 30 16 14 17 6 17 18 1 10 8 8 11 7 8 9 8 8 17 12 9 7 8 10 36 6 9 14 15 19 22 24
43 52 59 53 45 23 16 22 24 21 33 34 46 37 39 41 34 34 8 12 13 8 5 5 7 6 6 13 1 12 7 3 3 4 7 6 16 24 20 19 20 23 28 32
51 50 61 57 43 28 21 16 25 23 26 33 12 11 18 22 13 22 7 7 5 9 7 5 5 5 6 7 5 7 12 22 5 10 14 15 14 15 23 29 25 30 30 34
55 47 60 58 39 24 21 18 13 12 13 8 8 14 30 21 19 13 23 31 13 22 16 8 6 7 7 5 5 6 7 12 11 9 12 13 11 19 32 37 33 34 33 35
55 55 59 48 34 22 19 21 15 17 8 11 21 25 7 17 13 10 15 18 21 11 9 5 5 9 9 7 7 4 3 6 7 5 28 15 25 38 40 45 38 40 41 43
59 59 54 39 35 14 7 4 1 8 17 7 7 11 8 12 7 4 4 13 15 9 7 12 10 8 13 8 6 7 17 21 19 19 41 42 41 43 41 25 42 41 43 38
62 59 49 34 17 5 7 3 5 10 7 4 10 7 5 9 2 2 2 8 5 8 10 7 13 10 19 5 7 36 42 42 38 41 47 51 40 27 42 42 44 43 40 31
63 55 43 15 1 8 2 8 10 6 3 5 6 8 8 8 6 2 3 4 7 6 8 7 8 17 11 5 32 47 45 42 40 34 33 44 50 51 52 44 38 42 36 31
59 46 18 1 3 3 12 16 8 13 6 5 4 5 7 13 5 5 5 3 3 2 3 3 5 4 4 12 37 46 49 36 46 46 42 43 47 47 47 44 37 36 33 32
48 20 6 6 4 9 9 2 5 7 8 9 7 4 6 9 7 4 7 4 4 4 3 2 4 3 8 26 34 41 49 54 45 36 27 31 41 41 40 39 33 33 35 34
35 17 7 13 20 11 7 8 9 11 8 12 12 12 9 4 4 4 2 5 5 5 6 4 0 5 24 40 43 44 46 49 50 46 42 38 37 40 36 38 35 32 32 32
41 31 31 14 3 9 8 7 6 9 4 13 7 5 7 2 3 4 3 4 4 3 7 4 6 11 38 43 44 51 52 49 52 45 54 43 38 34 33 31 32 30 29 28
26 6 6 6 6 6 10 11 6 6 10 7 5 6 2 5 5 6 4 3 3 5 3 3 5 23 35 42 45 49 53 56 56 56 55 45 38 24 18 20 22 23 23 23
7 5 9 9 9 10 9 9 6 4 8 8 11 5 7 7 6 3 5 1 1 4 4 4 10 28 34 35 41 46 48 49 51 55 58 45 39 23 11 9 12 15 17 18
10 9 10 13 20 12 10 13 11 12 9 9 6 3 7 6 6 4 4 5 4 4 4 4 18 23 25 35 38 44 48 47 48 54 58 52 43 32 25 14 11 11 15 18
12 16 12 17 13 19 18 23 24 14 11 5 7 4 5 7 4 6 7 4 7 5 5 14 17 20 19 26 33 39 43 45 40 42 51 53 47 37 30 27 26 25 22 19
12 16 28 35 25 22 23 14 19 17 17 10 5 7 4 5 6 4 7 8 6 11 14 13 14 19 14 18 26 36 40 41 41 43 42 49 55 48 43 38 37 32 26 26
Wind_Direction_500mb
352 350 351 351 353 355 9 355 336 337 341 353 126 322 331 311 312 341 295 285 286 294 295 288 282 290 45 175 304 310 321 278 273 198 202 216 200 208 197 201 199 255 217 217
350 351 350 351 354 355 351 341 303 332 6 348 344 321 304 290 311 338 328 298 308 302 294 293 283 285 138 197 165 325 14 235 233 220 198 206 200 207 195 212 198 208 222 208
351 352 349 351 352 357 354 338 326 338 360 358 335 329 295 324 320 321 305 288 303 329 308 275 271 281 74 162 256 208 234 264 245 194 190 191 208 208 195 209 217 188 212 207
354 352 349 352 349 9 20 357 1 338 312 326 324 297 284 301 359 315 310 274 297 350 307 313 282 278 311 355 286 213 247 262 233 251 289 296 280 210 211 207 218 226 199 220
352 352 349 351 348 2 2 353 336 316 291 291 298 313 293 324 339 317 302 308 325 313 294 294 298 312 307 341 320 314 230 260 268 246 231 246 249 247 215 214 214 224 241 227
352 351 351 352 352 349 319 310 314 287 294 303 319 311 312 313 317 292 279 321 310 297 308 320 295 282 276 262 267 288 277 292 225 236 215 222 246 216 219 220 216 216 221 237
351 351 350 351 349 330 304 305 306 274 288 315 312 300 296 295 300 288 291 293 290 286 309 303 275 253 254 254 249 236 273 293 266 232 197 212 94 44 208 207 215 217 231 239
344 349 351 349 344 333 306 297 291 258 272 292 296 314 313 302 296 296 289 300 299 309 300 282 266 218 225 232 232 226 221 272 274 223 204 199 113 34 348 187 113 16 310 293
337 344 350 349 343 316 307 295 286 271 289 248 312 296 293 294 305 302 308 317 326 296 278 292 277 312 306 101 215 200 203 226 292 267 203 212 53 2 322 283 167 23 345 326
338 339 347 348 343 315 298 297 291 265 267 281 273 257 294 299 298 287 302 341 324 310 299 289 302 320 350 294 213 179 189 211 234 244 258 83 355 335 226 211 77 350 344 334
342 340 342 346 340 315 295 289 288 265 264 290 278 271 244 259 278 268 318 314 47 299 316 341 352 336 320 295 121 181 185 197 183 226 254 191 359 31 317 22 346 349 342 333
340 341 341 339 336 314 280 292 282 287 253 275 298 289 282 269 274 258 261 301 317 313 317 348 307 304 323 309 357 162 214 302 295 328 39 23 7 62 42 10 345 350 338 334
339 332 337 334 331 311 287 274 277 297 286 306 304 346 306 321 297 227 268 253 256 256 311 292 289 322 282 324 11 297 28 3 300 287 47 351 319 26 8 0 346 340 338 332
340 335 337 331 325 305 292 278 278 250 274 289 295 312 341 348 320 288 246 232 279 303 292 269 279 272 149 311 320 337 337 330 328 294 19 358 305 291 326 332 331 336 336 337
339 335 336 330 319 304 294 293 256 231 260 309 305 315 324 354 349 304 270 238 246 283 280 290 271 336 335 261 179 76 21 353 348 330 325 319 292 303 310 318 322 329 331 333
334 333 334 329 313 290 276 250 274 221 233 298 296 312 315 342 336 36 283 247 236 249 278 265 315 343 331 311 344 83 5 338 320 300 306 298 295 299 300 306 316 320 322 324
333 331 331 330 308 210 195 263 228 302 248 249 285 285 269 345 350 192 124 161 230 247 273 310 325 329 319 286 10 344 330 322 318 311 299 291 287 302 297 303 307 312 313 315
334 329 330 336 198 149 217 223 293 283 185 247 286 288 288 359 337 350 343 205 223 238 300 322 332 313 334 351 326 314 310 305 303 292 290 287 288 289 288 292 295 303 306 315
337 328 327 238 144 172 228 297 251 189 210 270 240 287 302 330 324 287 253 218 237 272 250 235 338 311 323 279 315 339 340 321 302 298 293 282 281 283 284 284 284 289 298 308
344 346 326 225 228 309 309 152 175 201 203 229 251 283 290 322 311 279 284 244 256 236 149 189 225 253 333 349 340 335 335 338 337 324 318 295 282 282 281 279 278 282 287 297
354 336 279 269 290 282 213 209 213 173 218 209 234 261 291 318 283 318 354 308 293 269 89 299 201 337 355 352 348 347 347 346 346 343 336 313 293 277 280 276 273 275 281 286
317 295 288 298 237 206 231 208 178 220 247 174 243 344 248 244 205 264 233 272 259 288 360 262 344 6 349 351 346 342 344 342 349 347 347 335 321 293 274 271 263 269 277 283
323 304 276 242 206 237 217 199 193 222 185 194 256 300 215 169 206 246 259 251 233 320 269 295 337 347 347 350 352 351 351 350 347 348 350 347 340 321 283 266 255 267 276 284
279 260 270 229 206 232 211 198 202 165 241 278 295 288 230 184 202 234 251 305 306 240 248 240 337 332 333 347 353 357 356 354 349 350 356 354 353 354 338 281 266 276 279 289
255 213 240 231 238 245 226 226 219 217 234 251 237 211 222 184 238 203 257 230 248 252 234 278 308 322 329 339 349 351 355 359 5 4 7 7 3 7 21 23 20 324 317 309
232 232 247 238 254 251 226 231 235 219 214 215 239 230 220 206 216 208 213 222 227 218 215 273 306 316 333 344 347 348 351 357 5 11 13 11 11 7 8 21 21 11 349 340
229 243 233 251 265 274 274 255 243 197 202 243 222 235 236 122 221 220 191 219 222 230 272 302 313 314 321 346 349 347 349 354 1 10 10 11 14 17 17 14 6 10 3 354
Wind_Speed_850mb
56 54 55 56 59 53 40 16 5 14 11 5 0 10 19 24 22 23 18 17 18 21 25 23 16 12 7 16 12 13 13 13 22 54 45 49 56 43 54 25 42 24 19 9
55 52 55 52 49 48 35 19 9 10 13 6 7 14 20 15 25 23 13 20 14 20 22 12 9 10 21 14 1 4 7 19 17 23 46 43 55 47 52 33 31 42 24 5
51 52 55 48 42 36 24 14 7 7 6 2 7 16 12 16 16 17 21 20 22 23 20 17 13 14 4 9 18 14 10 9 29 17 37 22 47 49 49 47 24 25 30 25
48 56 57 48 39 26 16 12 5 8 8 10 20 18 11 23 18 14 26 8 15 22 14 30 22 10 16 4 11 15 7 14 38 38 17 14 26 49 50 49 44 33 24 31
53 59 61 45 32 28 9 11 10 12 32 17 22 3 15 21 23 15 18 21 31 28 25 28 33 32 23 8 12 10 8 3 23 40 30 22 15 21 45 48 44 39 30 34
57 62 62 49 25 22 7 9 10 11 17 12 14 12 15 24 33 25 18 28 30 30 21 29 43 44 40 23 13 7 9 8 10 38 39 19 23 29 31 38 44 39 38 40
53 63 64 50 23 19 18 20 16 7 10 16 18 24 33 29 31 33 47 41 19 16 48 54 47 48 46 39 31 23 17 14 8 16 32 25 14 16 26 26 35 38 39 31
48 61 66 55 20 17 16 20 16 8 11 20 27 25 26 35 29 28 31 29 24 34 26 11 14 11 18 29 36 30 26 19 6 10 24 19 15 19 8 24 18 10 13 17
44 55 63 60 24 14 17 19 20 17 12 7 16 33 30 21 20 21 14 25 29 14 6 8 10 7 7 4 8 29 26 20 11 8 20 37 19 17 11 11 17 15 12 9
46 50 59 56 35 14 17 24 22 17 18 31 20 8 12 14 11 10 31 22 13 10 7 8 9 6 12 3 6 25 17 12 16 11 12 11 23 20 6 22 8 19 18 18
43 51 57 52 43 16 17 18 23 22 15 45 33 30 16 14 17 6 17 18 1 10 8 8 11 7 8 9 8 8 17 12 9 7 8 10 36 6 9 14 15 19 22 24
43 52 59 53 45 23 16 22 24 21 33 34 46 37 39 41 34 34 8 12 13 8 5 5 7 6 6 13 1 12 7 3 3 4 7 6 16 24 20 19 20 23 28 32
51 50 61 57 43 28 21 16 25 23 26 33 12 11 18 22 13 22 7 7 5 9 7 5 5 5 6 7 5 7 12 22 5 10 14 15 14 15 23 29 25 30 30 34
55 47 60 58 39 24 21 18 13 12 13 8 8 14 30 21 19 13 23 31 13 22 16 8 6 7 7 5 5 6 7 12 11 9 12 13 11 19 32 37 33 34 33 35
55 55 59 48 34 22 19 21 15 17 8 11 21 25 7 17 13 10 15 18 21 11 9 5 5 9 9 7 7 4 3 6 7 5 28 15 25 38 40 45 38 40 41 43
59 59 54 39 35 14 7 4 1 8 17 7 7 11 8 12 7 4 4 13 15 9 7 12 10 8 13 8 6 7 17 21 19 19 41 42 41 43 41 25 42 41 43 38
62 59 49 34 17 5 7 3 5 10 7 4 10 7 5 9 2 2 2 8 5 8 10 7 13 10 19 5 7 36 42 42 38 41 47 51 40 27 42 42 44 43 40 31
63 55 43 15 1 8 2 8 10 6 3 5 6 8 8 8 6 2 3 4 7 6 8 7 8 17 11 5 32 47 45 42 40 34 33 44 50 51 52 44 38 42 36 31
59 46 18 1 3 3 12 16 8 13 6 5 4 5 7 13 5 5 5 3 3 2 3 3 5 4 4 12 37 46 49 36 46 46 42 43 47 47 47 44 37 36 33 32
48 20 6 6 4 9 9 2 5 7 8 9 7 4 6 9 7 4 7 4 4 4 3 2 4 3 8 26 34 41 49 54 45 36 27 31 41 41 40 39 33 33 35 34
35 17 7 13 20 11 7 8 9 11 8 12 12 12 9 4 4 4 2 5 5 5 6 4 0 5 24 40 43 44 46 49 50 46 42 38 37 40 36 38 35 32 32 32
41 31 31 14 3 9 8 7 6 9 4 13 7 5 7 2 3 4 3 4 4 3 7 4 6 11 38 43 44 51 52 49 52 45 54 43 38 34 33 31 32 30 29 28
26 6 6 6 6 6 10 11 6 6 10 7 5 6 2 5 5 6 4 3 3 5 3 3 5 23 35 42 45 49 53 56 56 56 55 45 38 24 18 20 22 23 23 23
7 5 9 9 9 10 9 9 6 4 8 8 11 5 7 7 6 3 5 1 1 4 4 4 10 28 34 35 41 46 48 49 51 55 58 45 39 23 11 9 12 15 17 18
10 9 10 13 20 12 10 13 11 12 9 9 6 3 7 6 6 4 4 5 4 4 4 4 18 23 25 35 38 44 48 47 48 54 58 52 43 32 25 14 11 11 15 18
12 16 12 17 13 19 18 23 24 14 11 5 7 4 5 7 4 6 7 4 7 5 5 14 17 20 19 26 33 39 43 45 40 42 51 53 47 37 30 27 26 25 22 19
12 16 28 35 25 22 23 14 19 17 17 10 5 7 4 5 6 4 7 8 6 11 14 13 14 19 14 18 26 36 40 41 41 43 42 49 55 48 43 38 37 32 26 26
Wind_Direction_850mb
352 350 351 351 353 355 9 355 336 337 341 353 126 322 331 311 312 341 295 285 286 294 295 288 282 290 45 175 304 310 321 278 273 198 202 216 200 208 197 201 199 255 217 217
350 351 350 351 354 355 351 341 303 332 6 348 344 321 304 290 311 338 328 298 308 302 294 293 283 285 138 197 165 325 14 235 233 220 198 206 200 207 195 212 198 208 222 208
351 352 349 351 352 357 354 338 326 338 360 358 335 329 295 324 320 321 305 288 303 329 308 275 271 281 74 162 256 208 234 264 245 194 190 191 208 208 195 209 217 188 212 207
354 352 349 352 349 9 20 357 1 338 312 326 324 297 284 301 359 315 310 274 297 350 307 313 282 278 311 355 286 213 247 262 233 251 289 296 280 210 211 207 218 226 199 220
352 352 349 351 348 2 2 353 336 316 291 291 298 313 293 324 339 317 302 308 325 313 294 294 298 312 307 341 320 314 230 260 268 246 231 246 249 247 215 214 214 224 241 227
352 351 351 352 352 349 319 310 314 287 294 303 319 311 312 313 317 292 279 321 310 297 308 320 295 282 276 262 267 288 277 292 225 236 215 222 246 216 219 220 216 216 221 237
351 351 350 351 349 330 304 305 306 274 288 315 312 300 296 295 300 288 291 293 290 286 309 303 275 253 254 254 249 236 273 293 266 232 197 212 94 44 208 207 215 217 231 239
344 349 351 349 344 333 306 297 291 258 272 292 296 314 313 302 296 296 289 300 299 309 300 282 266 218 225 232 232 226 221 272 274 223 204 199 113 34 348 187 113 16 310 293
337 344 350 349 343 316 307 295 286 271 289 248 312 296 293 294 305 302 308 317 326 296 278 292 277 312 306 101 215 200 203 226 292 267 203 212 53 2 322 283 167 23 345 326
338 339 347 348 343 315 298 297 291 265 267 281 273 257 294 299 298 287 302 341 324 310 299 289 302 320 350 294 213 179 189 211 234 244 258 83 355 335 226 211 77 350 344 334
342 340 342 346 340 315 295 289 288 265 264 290 278 271 244 259 278 268 318 314 47 299 316 341 352 336 320 295 121 181 185 197 183 226 254 191 359 31 317 22 346 349 342 333
340 341 341 339 336 314 280 292 282 287 253 275 298 289 282 269 274 258 261 301 317 313 317 348 307 304 323 309 357 162 214 302 295 328 39 23 7 62 42 10 345 350 338 334
339 332 337 334 331 311 287 274 277 297 286 306 304 346 306 321 297 227 268 253 256 256 311 292 289 322 282 324 11 297 28 3 300 287 47 351 319 26 8 0 346 340 338 332
340 335 337 331 325 305 292 278 278 250 274 289 295 312 341 348 320 288 246 232 279 303 292 269 279 272 149 311 320 337 337 330 328 294 19 358 305 291 326 332 331 336 336 337
339 335 336 330 319 304 294 293 256 231 260 309 305 315 324 354 349 304 270 238 246 283 280 290 271 336 335 261 179 76 21 353 348 330 325 319 292 303 310 318 322 329 331 333
334 333 334 329 313 290 276 250 274 221 233 298 296 312 315 342 336 36 283 247 236 249 278 265 315 343 331 311 344 83 5 338 320 300 306 298 295 299 300 306 316 320 322 324
333 331 331 330 308 210 195 263 228 302 248 249 285 285 269 345 350 192 124 161 230 247 273 310 325 329 319 286 10 344 330 322 318 311 299 291 287 302 297 303 307 312 313 315
334 329 330 336 198 149 217 223 293 283 185 247 286 288 288 359 337 350 343 205 223 238 300 322 332 313 334 351 326 314 310 305 303 292 290 287 288 289 288 292 295 303 306 315
337 328 327 238 144 172 228 297 251 189 210 270 240 287 302 330 324 287 253 218 237 272 250 235 338 311 323 279 315 339 340 321 302 298 293 282 281 283 284 284 284 289 298 308
344 346 326 225 228 309 309 152 175 201 203 229 251 283 290 322 311 279 284 244 256 236 149 189 225 253 333 349 340 335 335 338 337 324 318 295 282 282 281 279 278 282 287 297
354 336 279 269 290 282 213 209 213 173 218 209 234 261 291 318 283 318 354 308 293 269 89 299 201 337 355 352 348 347 347 346 346 343 336 313 293 277 280 276 273 275 281 286
317 295 288 298 237 206 231 208 178 220 247 174 243 344 248 244 205 264 233 272 259 288 360 262 344 6 349 351 346 342 344 342 349 347 347 335 321 293 274 271 263 269 277 283
323 304 276 242 206 237 217 199 193 222 185 194 256 300 215 169 206 246 259 251 233 320 269 295 337 347 347 350 352 351 351 350 347 348 350 347 340 321 283 266 255 267 276 284
279 260 270 229 206 232 211 198 202 165 241 278 295 288 230 184 202 234 251 305 306 240 248 240 337 332 333 347 353 357 356 354 349 350 356 354 353 354 338 281 266 276 279 289
255 213 240 231 238 245 226 226 219 217 234 251 237 211 222 184 238 203 257 230 248 252 234 278 308 322 329 339 349 351 355 359 5 4 7 7 3 7 21 23 20 324 317 309
232 232 247 238 254 251 226 231 235 219 214 215 239 230 220 206 216 208 213 222 227 218 215 273 306 316 333 344 347 348 351 357 5 11 13 11 11 7 8 21 21 11 349 340
229 243 233 251 265 274 274 255 243 197 202 243 222 235 236 122 221 220 191 219 222 230 272 302 313 314 321 346 349 347 349 354 1 10 10 11 14 17 17 14 6 10 3 354